SCP
0 0 0 0 0 0 0 0 0 0 0 0 0 0 0 0 0 0 0 0 0 0 0 0 0 0 0 0 0 0 0 0 0 0 0 0 0 0
0 0 0 0 0 0 0 0 0 0 0 0 0 0 0 0 0 0 0 0 0 0 0 0 0 0 0 0 0 0 0 0 0 0 0 0 0 0
0 0 0 0 0 0 0 0 0 0 0 0 0 0 0 0 0 0 0 0 0 0 0 0 0 0 0 0 0 0 0 0 0 0 0 0 0 0
0 0 0 0 0 0 0 0 0 0 0 0 0 0 0 0 0 0 0 0 0 0 0 0 0 0 0 0 0 0 0 0 0 0 0 0 0 0
0 0 0 0 0 0 0 0 0 0 0 0 0 0 0 0 0 0 0 0 0 0 0 0 0 0 0 0 0 0 0 0 0 0 0 0 0 0
0 0 0 0 0 0 0 0 0 0 0 0 0 0 0 0 0 0 0 0 0 0 0 0 0 0 0 0 0 0 0 0 0 0 0 0 0 0
0 0 0 0 0 0 0 0 0 0 0 0 0 0 0 0 0 0 0 0 0 0 0 0 0 0 0 0 0 0 0 0 0 0 0 0 0 0
0 0 0 0 0 0 0 0 0 0 0 0 0 0 0 0 0 0 0 0 0 0 0 0 0 0 0 0 0 0 0 0 0 0 0 0 0 0
0 0 0 0 0 0 0 0 0 0 0 0 0 0 0 0 0 0 0 0 0 0 0 0 0 0 0 0 0 0 0 0 0 0 0 0 0 0
0 0 0 0 0 0 0 0 0 0 0 0 0 0 0 0 0 0 0 0 0 0 0 0 0 0 0 0 0 0 0 0 0 0 0 0 0 0
0 0 0 0 0 0 0 0 0 0 0 0 0 0 0 0 0 0 0 0 0 0 0 0 0 0 0 0 0 0 0 0 0 0 0 0 0 0
0 0 0 0 0 0 0 0 0 0 0 0 0 0 0 0 0 0 0 0 0 0 0 0 0 0 0 0 0 0 0 0 0 0 0 0 0 0
0 0 0 0 0 0 0 0 0 0 0 0 0 0 0 0 0 0 0 0 0 0 0 0 0 0 0 0 0 0 0 0 0 0 0 0 0 0
0 0 0 0 0 0 0 0 0 0 0 0 0 0 0 0 0 0 0 0 0 0 0 0 0 0 0 0 0 0 0 0 0 0 0 0 0 0
0 0 0 0 0 0 0 0 0 0 0 0 0 0 0 0 0 0 0 0 0 0 0 0 0 0 0 0 0 0 0 0 0 0 0 0 0 0
0 0 0 0 0 0 0 0 0 0 0 0 0 0 0 0 0 0 0 0 0 0 0 0 0 0 0 0 0 0 0 0 0 0 0 0 0 0
0 0 0 0 0 0 0 0 0 0 0 0 0 0 0 0 0 0 0 0 0 0 0 0 0 0 0 0 0 0 0 0 0 0 0 0 0 0
0 0 0 0 0 0 0 0 0 0 0 0 0 0 0 0 0 0 0 0 0 0 0 0 0 0 0 0 0 0 0 0 0 0 0 0 0 0
0 0 0 0 0 0 0 0 0 0 0 0 0 0 0 0 0 0 0 0 0 0 0 0 0 0 0 0 0 0 0 0 0 0 0 0 0 0
0 0 0 0 0 0 0 0 0 0 0 0 0 0 0 0 0 0 0 0 0 0 0 0 0 0 0 0 0 0 0 0 0 0 0 0 0 0
0 0 0 0 0 0 0 0 0 0 0 0 0 0 0 0 0 0 0 0 0 0 0 0 0 0 0 0 0 0 0 0 0 0 0 0 0 0
0 0 0 0 0 0 0 0 0 0 0 0 0 0 0 0 0 0 0 0 0 0 0 0 0 0 0 0 0 0 0 0 0 0 0 0 0 0
0 0 0 0 0 0 0 0 0 0 0 0 0 0 0 0 0 0 0 0 0 0 0 0 0 0 0 0 0 0 0 0 0 0 0 0 0 0
Wind_Speed
3 3 2 1 1 2 2 2 3 2 2 2 1 0 0 0 1 1 1 3 5 6 6 7 7 8 9 10 11 11 12 12 13 13 13 14 15 15
2 2 2 2 1 1 1 1 2 2 2 1 0 0 0 1 2 1 1 4 4 6 6 6 6 7 8 10 10 10 11 12 12 13 14 15 15 15
1 2 2 2 2 1 1 2 2 2 2 1 0 0 0 1 1 1 1 1 2 5 6 6 7 8 8 8 9 10 11 12 12 13 14 15 15 15
1 1 1 1 1 1 0 1 1 1 2 2 0 0 1 1 1 1 2 2 2 4 5 6 7 7 8 9 9 10 11 12 13 13 14 15 15 15
1 0 0 1 1 0 0 0 1 0 1 1 1 0 1 1 1 2 2 2 3 3 5 5 6 7 8 9 9 10 11 11 12 12 13 14 14 15
1 1 0 1 1 1 1 1 1 1 1 1 0 0 1 1 1 1 2 2 3 3 4 5 6 7 8 10 10 11 11 11 12 12 12 13 13 13
2 2 2 1 1 1 1 1 2 2 1 1 0 1 1 1 1 1 2 3 2 2 3 3 3 3 4 7 9 10 10 11 11 12 12 12 12 13
1 2 2 2 2 2 3 2 2 2 1 1 0 0 1 1 1 1 1 2 3 2 3 4 3 3 3 3 8 10 10 11 11 12 12 12 12 12
1 1 1 2 2 2 4 4 4 3 1 0 1 1 1 1 1 1 1 2 3 3 3 4 3 3 3 5 10 11 11 11 11 12 12 12 12 13
2 2 2 2 2 2 3 3 3 2 2 1 1 0 0 0 0 0 1 2 2 2 2 3 3 3 4 4 8 11 12 12 12 12 12 12 12 13
2 2 1 2 3 4 3 3 3 2 3 2 2 2 3 3 2 1 1 1 2 3 2 2 3 4 4 3 5 9 12 13 14 13 13 13 13 12
2 1 2 2 3 4 3 3 2 1 1 2 3 3 2 3 4 1 0 1 2 3 2 2 3 4 4 3 3 4 6 10 13 14 14 13 13 7
1 1 1 3 3 4 3 2 1 1 1 1 1 2 2 2 2 2 1 0 1 3 3 2 3 3 3 5 4 3 4 5 6 8 10 13 14 10
1 1 1 3 3 3 3 3 3 3 1 1 1 1 2 2 2 2 2 2 1 3 4 2 2 3 3 4 5 5 4 4 4 5 5 10 11 12
1 2 3 4 3 3 4 4 3 2 1 1 1 1 1 1 1 2 2 2 3 3 3 2 2 3 2 3 5 5 6 5 4 4 5 5 5 5
2 3 3 4 3 4 4 3 2 1 1 1 1 1 1 1 1 1 2 2 2 3 3 3 3 3 3 3 4 5 5 4 5 5 5 4 4 4
2 2 2 1 2 2 2 2 2 2 2 1 1 1 2 2 2 2 2 2 2 3 4 3 2 2 2 3 3 4 4 4 4 5 4 4 4 4
2 1 1 1 1 1 1 1 2 2 2 1 1 1 2 2 2 2 2 2 2 3 3 4 4 3 3 2 2 4 4 4 4 4 3 4 5 4
2 1 1 1 1 1 1 1 1 1 1 1 1 1 2 2 2 2 2 2 2 3 3 3 3 3 4 5 4 4 4 5 4 4 3 3 4 5
1 1 1 1 1 1 1 1 1 1 1 1 1 1 1 2 2 2 2 3 3 3 3 3 3 3 3 3 4 5 6 5 4 4 4 3 3 5
1 1 1 0 1 0 0 1 0 1 1 1 1 2 1 1 2 2 2 4 3 2 3 3 4 6 3 2 2 4 4 6 5 3 4 3 3 4
1 1 1 0 0 0 0 1 1 1 1 1 1 1 1 1 1 2 2 2 3 2 3 3 4 4 2 3 3 4 5 6 6 7 5 3 2 2
1 1 0 0 0 0 0 1 0 0 0 1 1 1 1 1 1 2 2 2 2 2 3 3 3 3 3 3 3 4 5 6 5 5 5 6 6 5
Wind_Direction
240 226 216 216 217 213 189 182 187 225 247 232 200 193 185 154 260 275 279 300 311 314 317 319 320 320 325 326 326 327 328 328 327 325 320 317 315 317
237 212 193 187 195 214 193 207 205 202 239 255 209 325 327 316 300 320 293 315 311 309 312 314 317 321 324 323 322 325 327 326 327 324 321 320 319 320
259 202 201 182 172 189 203 211 208 191 229 275 56 40 16 298 318 312 289 277 287 300 306 312 315 318 320 323 327 328 328 327 325 323 323 322 320 320
266 208 185 153 144 166 166 197 204 194 199 240 262 18 336 331 352 331 326 322 303 305 313 318 322 326 326 327 330 331 330 330 327 325 324 322 322 322
295 209 110 113 124 120 94 142 148 94 170 204 241 333 344 13 13 345 339 335 326 341 337 330 330 331 331 331 330 329 329 329 327 328 328 327 326 326
357 22 94 135 140 133 94 98 101 100 107 129 265 316 351 8 33 352 339 336 326 336 337 335 335 336 333 332 330 328 329 329 330 331 331 330 328 328
27 31 41 69 115 138 121 114 116 124 121 144 255 355 3 11 353 346 327 321 324 344 338 330 331 325 324 326 329 329 330 331 333 334 332 332 332 331
59 49 43 42 66 71 72 65 89 122 143 157 181 184 304 326 338 335 324 327 321 345 343 319 327 317 314 315 332 335 335 337 337 335 334 334 334 333
74 64 33 45 47 71 71 60 47 43 58 144 169 201 224 284 308 334 339 322 299 313 329 310 317 308 313 326 334 340 342 342 342 339 337 338 337 336
59 74 71 64 65 75 84 74 61 47 47 56 137 133 64 43 292 284 314 322 310 325 329 304 310 305 315 316 334 347 349 347 343 341 340 340 338 336
44 60 73 82 75 64 73 75 55 35 39 48 50 44 36 19 9 29 345 348 327 325 337 310 311 313 307 307 328 344 346 347 346 344 343 342 340 334
44 45 59 66 68 63 74 89 70 17 28 38 42 36 35 32 17 29 353 340 321 316 331 336 318 331 324 310 324 339 339 340 343 343 344 345 344 336
36 40 67 62 55 56 55 80 79 356 44 64 56 50 44 37 23 20 19 5 302 294 305 326 316 321 304 306 314 325 331 330 332 334 340 346 346 343
47 64 67 55 54 53 46 55 43 25 56 70 60 40 31 17 9 11 7 358 304 277 290 297 292 298 303 303 305 318 324 322 324 328 333 339 341 344
63 66 55 54 50 52 59 56 44 46 78 82 63 27 9 354 359 8 5 356 339 327 326 319 296 293 291 293 299 308 316 319 327 333 333 335 335 340
65 68 60 63 52 51 55 51 45 63 70 78 50 21 12 12 9 2 350 348 346 338 339 338 321 305 299 300 298 302 309 309 323 325 324 330 336 341
73 69 69 68 65 57 40 37 46 47 43 39 39 23 10 7 358 354 347 353 344 329 335 339 336 327 312 296 299 301 305 306 309 318 324 331 335 336
68 75 70 67 66 51 39 35 44 41 35 28 23 13 360 354 351 350 354 1 344 335 330 328 335 337 338 338 308 298 307 310 316 322 324 327 330 335
63 67 53 51 52 41 42 50 36 24 24 22 9 4 358 355 357 356 358 356 343 338 333 333 342 348 346 337 328 339 325 318 318 320 325 325 319 323
55 58 30 24 22 33 36 49 37 26 30 26 16 10 5 359 358 356 354 345 335 336 339 343 347 344 331 315 310 317 327 315 313 317 324 322 315 317
25 34 31 11 347 14 73 83 65 27 26 30 19 4 2 4 355 349 347 337 335 337 343 339 324 324 311 311 319 324 331 339 336 319 320 326 335 346
2 15 20 355 345 75 96 91 64 36 24 28 16 2 2 5 353 345 342 336 332 335 335 327 327 336 351 1 348 337 336 339 348 351 355 356 338 338
340 350 6 16 51 98 113 109 84 32 2 10 6 358 357 358 347 341 338 339 338 343 346 346 350 355 358 357 350 343 345 345 346 354 358 1 358 335